RH
100 100 100 100 100 100 100 100 96 87 100 99 100 100 99 86 64 56 81 75 82 82 81 75 73 77 70 71 63 63 70 69 65 58 52 52 56 57
100 100 100 100 100 100 100 100 100 100 100 100 100 88 88 76 72 57 47 54 62 71 75 80 74 75 69 66 69 66 59 55 50 51 52 54 55 57
100 100 100 100 100 100 100 100 100 100 85 99 100 100 100 99 96 97 85 83 72 85 82 73 66 70 67 65 59 61 59 57 57 54 51 49 48 47
100 100 100 100 100 100 100 100 86 88 88 90 100 100 100 96 100 100 91 86 88 89 76 80 73 70 55 55 59 51 41 40 41 38 36 36 36 35
100 100 100 100 100 100 98 90 83 88 73 89 100 98 99 97 77 73 91 92 92 85 79 68 65 63 55 49 43 39 35 37 39 38 35 32 28 24
96 100 100 100 100 94 94 88 76 99 99 98 99 88 74 85 91 98 98 93 92 86 74 72 59 47 47 45 39 37 39 38 36 32 25 15 9 6
64 78 87 93 100 91 100 83 86 91 82 85 88 88 90 81 77 83 92 91 78 67 60 63 56 65 57 47 40 37 35 30 20 12 6 5 4 4
84 100 100 100 100 100 84 85 80 80 83 83 96 91 79 88 94 78 65 65 72 65 74 83 64 71 52 43 33 24 13 8 7 5 3 3 3 3
100 100 100 100 98 67 73 76 72 77 84 85 94 96 92 79 66 70 73 77 83 82 71 76 62 54 45 32 12 7 7 7 6 4 5 4 4 4
95 100 87 70 64 68 79 90 96 98 96 88 83 69 65 68 72 82 88 86 70 60 52 52 48 42 26 10 7 7 7 6 7 6 6 4 4 4
68 78 75 79 87 93 100 99 92 80 81 76 72 83 90 89 80 70 68 61 57 50 44 46 30 17 10 6 6 7 7 8 8 7 7 8 7 4
85 85 81 86 93 88 88 88 90 92 100 95 92 85 78 70 62 55 48 46 39 34 24 17 10 8 9 6 6 8 7 8 8 10 10 10 9 6
81 84 90 95 97 100 100 100 100 100 96 85 75 64 55 49 46 42 35 24 15 11 10 10 9 10 10 13 8 10 11 12 12 12 11 10 9 8
99 100 100 100 100 98 92 87 81 74 67 59 53 48 40 33 28 20 13 10 10 10 10 11 11 12 12 11 10 14 14 14 13 11 10 9 9 9
93 89 86 84 85 81 76 71 64 58 52 45 36 28 19 15 13 11 10 9 10 12 14 14 13 11 13 18 19 15 16 13 14 11 10 9 8 9
81 81 82 79 70 61 56 54 49 40 30 22 17 16 13 11 11 11 10 11 11 12 13 12 13 17 22 24 20 14 13 14 11 10 10 10 8 8
72 67 62 59 58 57 51 39 28 24 23 18 12 10 11 10 10 12 14 13 12 10 12 16 21 24 24 26 17 17 15 16 14 12 11 9 8 7
65 66 61 57 52 42 31 26 29 23 18 11 12 11 11 12 13 16 14 11 12 15 19 20 22 19 17 20 19 19 19 17 16 15 14 13 11 8
64 60 56 46 37 37 40 31 23 16 13 12 12 13 14 17 18 13 11 13 16 23 26 26 22 20 16 16 18 19 20 18 19 20 16 14 10 8
64 57 51 40 50 48 31 23 16 13 13 12 15 15 18 18 14 13 14 16 24 27 27 24 21 19 22 25 23 21 25 24 20 15 13 13 16 16
63 55 48 47 59 40 28 19 13 14 13 14 16 20 21 15 14 15 16 24 27 27 22 21 20 24 31 35 36 39 40 39 34 26 19 13 9 12
62 50 39 59 58 36 24 16 15 14 14 16 19 22 18 15 15 16 23 28 30 25 25 23 30 37 41 45 45 47 46 39 40 42 37 31 22 12
53 41 52 64 54 32 20 15 15 14 14 15 22 22 16 15 17 20 28 30 26 23 26 29 35 37 45 63 69 63 57 48 44 44 45 40 34 20
Wind_Speed
96 99 93 91 90 88 93 90 91 84 86 87 89 91 89 90 91 87 77 76 77 80 79 78 78 79 79 80 82 82 82 82 83 82 81 80 81 81
100 101 95 95 93 91 88 92 91 89 86 87 83 79 82 84 90 80 85 86 88 87 87 85 84 84 85 84 84 85 84 82 81 82 82 82 82 82
100 96 81 94 98 92 93 94 93 91 88 78 77 80 82 90 91 92 98 100 97 95 90 87 85 83 83 85 85 84 84 83 84 85 88 91 94 95
98 94 91 92 98 100 96 92 92 84 79 76 78 87 93 96 97 99 100 98 87 83 81 81 83 86 86 85 85 86 88 89 91 93 95 96 95 95
98 96 97 94 94 94 91 86 84 84 80 78 81 86 90 93 88 88 88 82 82 82 82 84 87 86 87 89 92 93 91 91 93 98 102 104 104 104
93 91 90 90 89 85 83 79 74 72 80 78 78 84 81 81 82 81 78 79 82 85 85 87 90 92 95 96 96 93 96 100 104 107 108 104 101 99
83 81 81 78 75 69 68 68 70 72 76 74 78 79 84 79 72 74 76 80 85 88 88 95 96 100 102 100 101 102 104 105 102 101 98 93 88 90
71 71 71 68 63 62 65 68 70 70 67 74 78 78 75 74 76 79 81 85 89 95 95 100 101 106 107 109 109 104 98 92 91 91 85 79 75 74
51 55 56 54 58 63 63 63 58 59 61 62 66 72 75 79 81 85 90 92 96 100 98 100 106 110 111 110 100 91 87 85 83 80 74 72 69 70
35 38 45 49 51 48 48 51 56 61 64 67 73 76 80 84 87 90 94 97 99 101 99 101 110 110 107 97 90 82 76 74 72 71 70 70 66 64
26 29 33 35 40 46 52 59 65 68 73 76 79 83 88 91 93 94 96 97 100 105 103 106 106 98 93 87 76 68 66 65 65 63 62 61 61 59
27 33 37 42 48 53 58 64 69 74 79 83 86 89 91 93 94 96 98 100 101 102 96 92 89 78 75 74 62 59 60 59 56 55 54 53 52 53
35 39 44 49 54 60 65 70 74 79 83 86 88 91 93 95 97 99 99 96 89 84 78 75 71 67 63 62 62 58 54 53 52 49 49 48 47 45
41 46 51 55 59 64 68 72 76 81 85 89 91 94 97 98 97 90 83 78 73 69 66 63 60 56 57 59 55 51 47 45 48 46 42 43 42 41
47 51 55 60 65 70 73 78 81 85 89 93 96 94 90 84 80 75 70 66 60 57 55 54 53 52 49 47 50 44 43 39 41 42 39 39 37 36
52 56 60 65 69 73 77 82 87 91 91 87 82 79 76 69 67 65 59 56 51 47 48 48 45 41 41 42 44 44 36 39 37 37 32 34 35 29
55 61 65 70 74 79 84 86 84 80 79 77 73 65 62 59 55 53 50 47 46 45 41 36 34 32 29 36 41 39 39 37 37 37 34 32 32 31
63 68 72 75 80 83 81 77 77 75 72 66 61 58 53 49 46 43 43 42 40 37 36 34 31 27 26 30 31 31 32 31 31 31 31 30 29 30
70 74 77 82 78 74 75 73 72 68 60 57 54 49 45 42 40 40 40 36 32 30 31 31 29 31 28 27 27 27 29 29 28 29 31 32 32 29
75 78 82 77 72 73 73 70 65 57 53 50 45 43 40 38 38 38 35 31 27 25 25 26 27 26 26 26 26 26 27 28 28 26 22 18 19 29
78 80 81 72 71 71 70 66 57 52 48 42 39 37 36 35 35 34 30 26 24 23 23 24 23 23 23 23 25 25 21 24 26 29 30 28 18 16
81 84 73 69 71 68 66 59 51 49 43 38 36 35 34 35 33 29 25 23 21 21 22 21 20 18 18 22 19 22 24 23 25 29 32 32 33 30
84 74 67 68 68 66 62 55 50 45 40 34 32 32 33 33 29 25 21 21 19 18 20 19 16 17 18 14 19 23 27 30 29 26 27 29 30 31
Wind_Direction
287 285 285 285 286 287 288 287 290 288 289 290 289 289 287 286 287 287 286 289 288 288 286 285 286 286 286 286 285 284 283 282 282 279 276 274 272 271
282 283 286 285 284 284 283 287 288 288 288 289 287 288 288 288 290 286 286 292 292 290 289 289 287 288 288 288 287 285 284 282 282 281 279 277 274 271
279 279 279 272 283 282 285 286 286 285 285 284 281 283 283 282 285 286 288 289 292 289 287 285 286 288 288 287 285 284 283 282 281 279 277 275 272 270
277 277 278 277 277 282 283 283 286 284 282 279 275 275 277 281 283 287 288 291 289 285 287 289 289 288 287 285 285 284 285 285 283 282 279 278 277 274
273 275 276 277 277 280 283 283 284 285 283 280 276 273 275 280 286 286 288 288 288 288 288 289 287 286 286 287 288 287 287 288 288 286 285 282 278 275
272 272 274 276 279 282 283 282 281 273 276 279 276 279 283 289 288 287 287 288 290 289 289 289 290 291 292 292 292 295 295 293 292 290 286 283 280 278
271 272 273 276 279 282 279 279 279 278 279 280 280 282 285 286 284 288 289 289 288 290 293 295 294 294 295 297 296 296 295 293 290 286 282 281 281 278
267 269 271 274 275 278 277 278 280 282 286 282 282 284 286 288 290 290 291 293 294 294 296 295 296 295 297 298 297 297 296 294 290 286 286 286 282 279
266 266 268 268 271 275 279 283 283 284 285 286 287 287 288 289 291 293 294 294 293 293 294 294 295 296 296 296 296 297 297 293 289 290 291 288 286 282
264 265 271 276 279 284 286 287 287 287 287 289 290 289 290 291 293 293 293 292 292 293 296 296 295 296 296 296 298 299 295 293 292 292 292 291 290 287
285 291 287 284 288 290 292 292 292 292 292 291 293 294 294 294 293 293 293 294 295 296 298 297 296 296 298 297 297 297 294 293 294 294 293 293 293 290
295 293 294 296 294 293 292 292 291 292 294 294 294 293 293 294 295 295 296 297 297 298 297 297 296 298 297 296 298 297 297 296 296 296 295 295 294 292
302 301 300 298 296 295 295 294 293 293 293 294 294 294 295 296 296 297 298 298 298 297 298 297 297 299 299 297 300 300 299 299 298 299 298 296 294 293
306 304 302 298 295 294 294 294 294 294 294 294 296 297 297 299 299 299 299 299 299 299 299 298 298 298 297 298 298 300 301 302 300 299 296 294 293 292
299 298 297 297 297 297 296 295 296 298 298 299 298 299 300 301 300 299 300 300 300 300 297 297 298 299 298 298 301 304 303 301 298 300 301 297 294 293
302 302 300 299 298 299 300 301 301 302 301 301 303 303 302 302 301 301 301 299 299 297 296 298 298 298 302 303 301 301 305 302 302 301 298 294 296 296
302 303 304 305 307 307 306 305 306 306 305 305 306 305 303 302 301 300 300 300 301 301 299 298 297 300 301 296 299 306 310 310 309 307 309 306 301 299
308 308 308 311 311 311 310 311 310 308 308 308 306 305 304 302 302 301 301 303 304 304 304 305 306 300 300 298 301 303 306 310 311 313 314 311 307 304
310 312 315 316 316 315 314 314 312 312 310 309 308 305 305 305 304 304 306 308 307 307 306 308 310 308 307 309 314 314 315 314 312 310 314 317 317 315
313 316 319 319 319 317 317 316 315 313 311 311 308 306 305 305 308 308 308 309 308 307 303 306 308 312 320 321 319 319 326 329 327 323 313 303 310 313
317 319 320 320 320 321 319 318 316 314 313 310 308 305 303 307 310 310 310 310 309 306 309 313 313 319 323 322 321 320 324 331 335 336 335 332 325 320
318 321 320 321 321 323 320 320 318 316 313 312 309 307 308 313 313 311 309 309 311 311 312 315 320 321 314 321 321 328 334 335 343 345 342 338 334 333
321 320 320 322 324 324 323 321 319 317 312 312 310 308 312 315 312 310 308 309 308 311 313 315 313 315 317 323 331 341 348 346 343 338 337 338 331 325